Find Globalstar M085

NORAD ID: 37742 Int'l Des: 2011-033 Owner: GLOBL Country: US Constellation: globalstar operational
LEOCIRCULAR

Live Position

Loading 3D Globe...

About Globalstar M085

Description loading...

Upcoming Passes

Passes for default location (London). Set your location on the main map for personalized predictions.

Altitude History

Loading altitude history...

Two-Line Element Set

1 37742U 11033D 26110.48819674 -.00000104 00000-0 99594-6 0 9996
2 37742 52.0152 8.8151 0000642 96.3170 75.9120 12.62262617682501
Epoch: Apr 20, 2026 • Age: 13 hours

Current Status

Altitude 1418.8 km
Velocity 7.16 km/s
Sub-Earth Point 49.07°N, 145.7°W
Launch Date Jul 13, 2011
Age 14.7 years
Type communications

Technical Details

Classification Payload
Mass 715.00 kg
Dry Mass 500.00 kg
Total Mass 715.00 kg
Length 4.00 m
Diameter 2.00 m
Span 12.00 m
Shape Trap Cyl + 2 Pan
Manufacturer THALR
Bus Type Prisma
Phase Status In Orbit
Owner/State GLOBL/US

Most Searched